TimePST,TemperatureF,Dew PointF,Humidity,Sea Level PressureIn,VisibilityMPH,Wind Direction,Wind SpeedMPH,Gust SpeedMPH,PrecipitationIn,Events,Conditions,WindDirDegrees,DateUTC
12:55 AM,55.0,37.9,53,29.65,10.0,North,9.2,21.9,N/A,,Mostly Cloudy,10,2012-12-02 08:55:00
1:55 AM,57.0,35.1,44,29.59,10.0,West,12.7,27.6,N/A,,Mostly Cloudy,270,2012-12-02 09:55:00
2:55 AM,57.9,35.1,42,29.57,10.0,South,11.5,17.3,N/A,,Mostly Cloudy,180,2012-12-02 10:55:00
3:55 AM,55.0,37.9,53,29.54,10.0,SW,23.0,43.7,0.00,Rain,Light Rain,220,2012-12-02 11:55:00
4:55 AM,52.0,41.0,66,29.53,10.0,SSW,32.2,43.7,0.00,Rain,Light Rain,210,2012-12-02 12:55:00
5:55 AM,48.9,42.1,77,29.56,10.0,SSW,19.6,34.5,0.01,Rain,Light Rain,210,2012-12-02 13:55:00
6:55 AM,50.0,42.1,74,29.54,10.0,SSW,25.3,42.6,0.02,Rain,Light Rain,210,2012-12-02 14:55:00
7:55 AM,48.0,46.0,93,29.57,4.0,South,21.9,31.1,0.08,Rain,Rain,180,2012-12-02 15:55:00
8:55 AM,48.0,45.0,89,29.60,4.0,SSW,24.2,33.4,0.06,Rain,Rain,200,2012-12-02 16:55:00
9:55 AM,46.9,44.1,90,29.70,3.0,WNW,15.0,26.5,0.15,Rain,Rain,300,2012-12-02 17:55:00
10:00 AM,44.6,42.8,93,29.77,2.5,WNW,24.2,33.4,0.02,Rain,Heavy Rain,290,2012-12-02 18:00:00
10:55 AM,42.1,39.9,92,29.76,2.5,NW,4.6,-,0.21,Rain,Rain,310,2012-12-02 18:55:00
11:55 AM,41.0,41.0,100,29.75,2.5,NNE,3.5,-,0.17,Rain,Rain,30,2012-12-02 19:55:00
12:12 PM,41.0,41.0,100,29.80,4.0,North,4.6,-,0.02,Rain,Light Rain,10,2012-12-02 20:12:00
12:45 PM,42.8,42.8,100,29.81,7.0,Calm,Calm,-,0.02,Rain,Light Rain,0,2012-12-02 20:45:00
12:55 PM,43.0,43.0,100,29.75,7.0,Calm,Calm,-,0.02,Rain,Light Rain,0,2012-12-02 20:55:00
1:55 PM,48.9,39.0,69,29.77,10.0,Variable,6.9,-,0.00,,Scattered Clouds,0,2012-12-02 21:55:00
2:55 PM,48.9,33.1,54,29.81,10.0,WNW,12.7,21.9,N/A,,Scattered Clouds,290,2012-12-02 22:55:00
3:55 PM,48.0,30.0,50,29.83,10.0,West,26.5,33.4,N/A,,Scattered Clouds,270,2012-12-02 23:55:00
4:55 PM,46.0,32.0,58,29.91,10.0,NW,6.9,-,N/A,,Scattered Clouds,320,2012-12-03 00:55:00
5:55 PM,44.1,28.9,55,29.92,10.0,Variable,4.6,19.6,N/A,,Partly Cloudy,0,2012-12-03 01:55:00
6:55 PM,44.1,27.0,51,29.95,10.0,Variable,5.8,17.3,N/A,,Clear,0,2012-12-03 02:55:00
7:55 PM,41.0,28.0,60,30.01,10.0,NE,9.2,-,N/A,,Clear,40,2012-12-03 03:55:00
8:55 PM,37.9,28.9,70,30.03,10.0,Calm,Calm,-,N/A,,Clear,0,2012-12-03 04:55:00
9:55 PM,36.0,28.9,76,30.06,10.0,North,4.6,-,N/A,,Scattered Clouds,360,2012-12-03 05:55:00
10:55 PM,35.1,28.9,78,30.10,10.0,NNW,4.6,-,N/A,,Mostly Cloudy,330,2012-12-03 06:55:00
11:55 PM,32.0,28.0,85,30.12,10.0,SSW,4.6,-,N/A,,Mostly Cloudy,200,2012-12-03 07:55:00